[[{"header":{"parameterUnit":"m.s-1","parameterCategory":1,"la1":30.2991,"la2":30.254,"lo1":-89.0895,"lo2":-89.0444,"dy":0.0017,"dx":0.0017,"nx":28,"ny":28,"refTime":"2025-08-28T21:00:00:Z","depth":0,"parameterNumber":2,"parameterNumberName":"U-component_of_WINDS"},"data":[0,0,0,0,0,0,0,0,0,0,0,0,0,0,0,0,0,0,0,0,0,0,0,0,0,0,0,0,0,0,0,0,0,0,0,0,0,0,0,0,0,0,0,0,0,0,0,0,0,0,0,0,0,0,0,0,0,0,-1.2348,-1.2346,0,-1.2219,-1.2218,-1.2217,-1.2079,-1.2077,-1.2075,-1.2073,-1.1941,-1.194,-1.1938,0,0,0,0,0,0,0,0,0,0,0,0,0,-1.2473,-1.2471,-1.2348,-1.2346,-1.2345,-1.222,-1.2218,-1.2216,-1.2079,-1.2077,-1.2074,-1.2072,-1.1942,-1.194,-1.1938,0,0,0,0,0,0,0,0,0,0,0,0,0,-1.2389,-1.2471,-1.2348,-1.2261,-1.2252,-1.222,-1.2218,-1.2216,-1.2079,-1.2076,-1.2074,-1.2071,-1.1943,-1.194,-1.1938,-1.1981,0,0,-1.193,-1.1929,0,0,0,0,0,0,0,0,-1.2394,-1.2385,-1.2275,-1.2267,-1.2257,-1.2162,-1.2214,-1.2137,-1.208,-1.2145,-1.2073,-1.2069,-1.2017,-1.2008,-1.1991,-1.1975,-1.1969,-1.193,-1.1928,-1.1927,-1.1926,0,0,0,0,0,0,0,-1.24,-1.2389,-1.2297,-1.2274,-1.2263,-1.2228,-1.2213,-1.2199,-1.2099,-1.2139,-1.2129,-1.2115,-1.2011,-1.1993,-1.1987,-1.1967,-1.193,-1.1928,-1.1926,-1.1925,-1.1979,-1.1982,0,0,0,0,0,0,-1.2419,-1.2395,-1.2301,-1.2293,-1.232,-1.2228,-1.2211,-1.2195,-1.2099,-1.2081,-1.2118,-1.211,-1.1999,-1.199,-1.1981,-1.2025,-1.1927,-1.1925,-1.1923,-1.1976,-1.198,-1.1983,0,0,0,0,0,0,-1.2422,-1.2412,-1.2306,-1.2341,-1.2325,-1.2229,-1.2213,-1.2194,-1.2176,-1.2083,-1.2065,-1.2118,-1.1996,-1.1985,-1.1982,-1.2018,-1.1924,-1.1921,-1.1973,-1.1977,-1.1981,-1.2113,0,0,0,0,0,0,-1.2427,-1.2414,-1.243,-1.2343,-1.2324,-1.231,-1.2215,-1.2194,-1.2172,-1.216,-1.2078,-1.2062,-1.1993,-1.1986,-1.1979,-1.2013,-1.1919,-1.1969,-1.1975,-1.198,-1.2105,-1.2122,-1.2136,0,0,0,0,0,-1.2432,-1.2473,-1.2432,-1.2421,-1.2342,-1.2312,-1.2301,-1.2222,-1.2176,-1.2191,-1.2131,-1.2064,-1.2016,-1.1987,-1.1978,-1.2012,-1.1966,-1.1973,-1.1979,-1.2098,-1.2119,-1.2135,0,0,0,0,0,0,-1.2567,-1.246,-1.2413,-1.2427,-1.238,-1.2289,-1.2305,-1.2246,-1.221,-1.22,-1.2103,-1.2085,-1.2094,-1.2052,-1.2022,-1.2048,-1.1981,-1.1987,-1.2075,-1.2093,-1.2108,-1.2118,-1.1917,0,0,0,0,0,-1.2599,-1.2584,-1.249,-1.2512,-1.249,-1.2402,-1.2386,-1.2329,-1.2276,-1.2255,-1.2195,-1.2146,-1.2119,-1.2104,-1.2074,-1.2098,-1.2078,-1.2117,-1.2132,-1.2145,-1.2151,-1.2159,-1.2175,-1.2004,-1.2004,-1.2004,0,0,-1.2664,-1.2603,-1.2599,-1.2537,-1.2494,-1.248,-1.2386,-1.2376,-1.2365,-1.2254,-1.2247,-1.2201,-1.214,-1.215,-1.2152,-1.2116,-1.2194,-1.2154,-1.2165,-1.2163,-1.2168,-1.2184,-1.2199,-1.2009,-1.2008,-1.2007,0,0,-1.2775,-1.2728,-1.274,-1.2698,-1.2633,-1.2574,-1.2578,-1.2495,-1.246,-1.2452,-1.2368,-1.2353,-1.231,-1.2269,-1.2243,-1.2338,-1.2275,-1.2331,-1.241,-1.242,-1.2433,-1.2445,-1.2478,-1.2491,-1.2336,-1.2337,-1.2337,0,-1.2864,-1.284,-1.2754,-1.2748,-1.2723,-1.2622,-1.2633,-1.2596,-1.2526,-1.251,-1.2471,-1.2414,-1.2365,-1.2364,-1.2388,-1.237,-1.237,-1.234,-1.2438,-1.2449,-1.2458,-1.2489,-1.2502,-1.2344,-1.2343,-1.2342,-1.2342,0,-1.2952,-1.2937,-1.2954,-1.2888,-1.2865,-1.2868,-1.2782,-1.2768,-1.2713,-1.2658,-1.265,-1.2589,-1.2544,-1.254,-1.2486,-1.2531,-1.251,-1.2456,-1.2387,-1.2483,-1.251,-1.2521,-1.2354,-1.2352,-1.2349,-1.2348,0,0,-1.3146,-1.3031,-1.3039,-1.3007,-1.2928,-1.2914,-1.2912,-1.2869,-1.2859,-1.2813,-1.2809,-1.2774,-1.2723,-1.2693,-1.2633,-1.2642,-1.272,-1.2586,-1.2583,-1.2612,-1.2765,-1.2806,-1.2821,-1.2678,-1.2679,-1.2681,-1.2769,0,-1.3243,-1.3233,-1.3155,-1.3168,-1.3152,-1.3055,-1.3053,-1.3004,-1.2952,-1.2931,-1.2873,-1.285,-1.2785,-1.2766,-1.277,-1.271,-1.2749,-1.2702,-1.2672,-1.2672,-1.269,-1.2835,-1.2878,-1.2965,-1.278,-1.2781,-1.2782,0,-1.3355,-1.3316,-1.3327,-1.3246,-1.3237,-1.3237,-1.319,-1.3171,-1.3113,-1.3074,-1.3041,-1.2973,-1.2965,-1.29,-1.2887,-1.2857,-1.2839,-1.2808,-1.2809,-1.2803,-1.2733,-1.2832,-1.2991,-1.3004,-1.2798,-1.2797,-1.2796,0,-1.3494,-1.3444,-1.3444,-1.342,-1.3326,-1.3328,-1.3289,-1.3228,-1.3207,-1.3166,-1.315,-1.3109,-1.3087,-1.3056,-1.2979,-1.2939,-1.2974,-1.2903,-1.2941,-1.2943,-1.2953,-1.2953,-1.3111,-1.2943,-1.2943,-1.2943,-1.2942,0,-1.3611,-1.3621,-1.3505,-1.3506,-1.3514,-1.3424,-1.3435,-1.3386,-1.3333,-1.3321,-1.3234,-1.3225,-1.3124,-1.3103,-1.3042,-1.304,-1.3031,-1.2999,-1.2983,-1.3006,-1.3011,-1.2994,-1.2986,-1.2946,-1.2945,-1.2945,-1.2944,0,-1.3768,-1.3691,-1.3684,-1.3596,-1.3574,-1.3584,-1.3508,-1.3504,-1.3446,-1.3433,-1.3424,-1.3335,-1.3305,-1.3225,-1.3175,-1.3134,-1.3149,-1.3119,-1.3169,-1.3158,-1.3201,-1.3198,-1.3353,-1.3368,-1.3192,-1.3194,-1.3195,0,-1.3847,-1.3853,-1.3765,-1.3751,-1.3716,-1.3694,-1.3672,-1.3583,-1.3563,-1.3496,-1.35,-1.3464,-1.3431,-1.3388,-1.3318,-1.3279,-1.3247,-1.3304,-1.3241,-1.3264,-1.3247,-1.3248,-1.3247,-1.3318,-1.332,-1.3322,-1.3324,0,-1.3996,-1.3957,-1.3928,-1.3886,-1.3861,-1.3823,-1.378,-1.3774,-1.3674,-1.3656,-1.3625,-1.3599,-1.3547,-1.3512,-1.3462,-1.3421,-1.3356,-1.3344,-1.3351,-1.3375,-1.3404,-1.3388,-1.3206,-1.3341,-1.3339,-1.3338,-1.3337,-1.3337,-1.4116,-1.4116,-1.4054,-1.4024,-1.3982,-1.3944,-1.3936,-1.3877,-1.385,-1.3801,-1.375,-1.3725,-1.3665,-1.3591,-1.3555,-1.3533,-1.3498,-1.3509,-1.3511,-1.3515,-1.3525,-1.3408,-1.3523,-1.3523,-1.3522,-1.3522,-1.3521,0,-1.426,-1.4215,-1.4188,-1.4131,-1.4107,-1.4048,-1.3997,-1.3981,-1.396,-1.3909,-1.3878,-1.3842,-1.3807,-1.3734,-1.3692,-1.3689,-1.3658,-1.3681,-1.368,-1.3671,-1.3559,-1.3557,-1.3707,-1.3707,-1.3707,-1.3707,-1.3707,-1.3707,-1.4332,-1.4328,-1.4282,-1.4257,-1.4212,-1.4186,-1.4162,-1.4126,-1.4085,-1.4049,-1.402,-1.3972,-1.3913,-1.3866,-1.3831,-1.381,-1.3798,-1.3831,-1.3801,-1.3697,-1.368,-1.3663,-1.366,-1.383,-1.383,-1.3915,-1.3916,-1.3917]},{"header":{"parameterUnit":"m.s-1","parameterCategory":1,"la1":30.2991,"la2":30.254,"lo1":-89.0895,"lo2":-89.0444,"dy":0.0017,"dx":0.0017,"nx":28,"ny":28,"refTime":"2025-08-28T21:00:00:Z","depth":0,"parameterNumber":3,"parameterNumberName":"V-component_of_WINDS"},"data":[0,0,0,0,0,0,0,0,0,0,0,0,0,0,0,0,0,0,0,0,0,0,0,0,0,0,0,0,0,0,0,0,0,0,0,0,0,0,0,0,0,0,0,0,0,0,0,0,0,0,0,0,0,0,0,0,0,0,2.3829,2.3829,0,2.382,2.382,2.382,2.3822,2.3822,2.3822,2.3822,2.381,2.381,2.381,0,0,0,0,0,0,0,0,0,0,0,0,0,2.3845,2.3845,2.3829,2.3829,2.3829,2.382,2.382,2.382,2.3822,2.3822,2.3822,2.3822,2.3811,2.381,2.381,0,0,0,0,0,0,0,0,0,0,0,0,0,2.3838,2.3845,2.3829,2.3829,2.3828,2.3821,2.382,2.382,2.3822,2.3822,2.3822,2.3822,2.3811,2.381,2.3809,2.38,0,0,2.3807,2.3807,0,0,0,0,0,0,0,0,2.3838,2.3837,2.3829,2.3829,2.3828,2.3822,2.3822,2.3813,2.3822,2.3824,2.3822,2.3822,2.3814,2.3813,2.3811,2.38,2.3799,2.3807,2.3807,2.3807,2.3806,0,0,0,0,0,0,0,2.3839,2.3837,2.3825,2.3829,2.3828,2.3828,2.3828,2.382,2.3818,2.3824,2.3824,2.3823,2.3814,2.3812,2.3811,2.3799,2.3807,2.3807,2.3806,2.3806,2.3783,2.3783,0,0,0,0,0,0,2.384,2.3838,2.3826,2.3825,2.3834,2.3828,2.3827,2.3824,2.3818,2.3817,2.3823,2.3823,2.3813,2.3811,2.381,2.3801,2.3807,2.3806,2.3806,2.3783,2.3783,2.3782,0,0,0,0,0,0,2.384,2.3838,2.3826,2.3832,2.383,2.3827,2.3824,2.3824,2.3821,2.3817,2.3817,2.3821,2.3813,2.3811,2.3804,2.38,2.3806,2.3805,2.3783,2.3783,2.3783,2.378,0,0,0,0,0,0,2.384,2.3839,2.3835,2.3832,2.383,2.382,2.3824,2.3823,2.3821,2.3821,2.3815,2.3814,2.3813,2.3805,2.3803,2.3799,2.3804,2.3783,2.3783,2.3783,2.3781,2.378,2.3779,0,0,0,0,0,2.3841,2.3834,2.3835,2.3833,2.3826,2.382,2.3819,2.3818,2.382,2.3817,2.3815,2.3815,2.3801,2.3804,2.3802,2.3798,2.3784,2.3783,2.3783,2.3781,2.378,2.3779,0,0,0,0,0,0,2.3835,2.3833,2.3834,2.3826,2.3823,2.382,2.3815,2.3816,2.3812,2.3812,2.3811,2.3809,2.3802,2.3799,2.3802,2.379,2.3793,2.3792,2.3792,2.3791,2.3791,2.3791,2.3804,0,0,0,0,0,2.3833,2.3829,2.3827,2.382,2.3819,2.3818,2.3815,2.3815,2.3811,2.381,2.3807,2.3803,2.3798,2.3794,2.3789,2.3781,2.378,2.3777,2.3777,2.3776,2.3775,2.3772,2.3771,2.3781,2.3781,2.3781,0,0,2.3829,2.3827,2.3824,2.3819,2.3817,2.3813,2.3816,2.3811,2.3808,2.3809,2.3802,2.38,2.3795,2.3788,2.3784,2.3785,2.3773,2.3776,2.3775,2.3774,2.3771,2.377,2.377,2.3781,2.3781,2.3781,0,0,2.3818,2.3816,2.3811,2.3809,2.3807,2.3806,2.3805,2.3802,2.3801,2.3795,2.3796,2.3792,2.3783,2.3781,2.3778,2.377,2.377,2.3768,2.3764,2.3761,2.376,2.376,2.3757,2.3757,2.3767,2.3767,2.3767,0,2.3812,2.3806,2.3807,2.3803,2.3801,2.3804,2.3798,2.3796,2.3792,2.379,2.3792,2.3783,2.378,2.3772,2.3771,2.3768,2.3767,2.3768,2.3761,2.376,2.3759,2.3757,2.3756,2.3767,2.3767,2.3767,2.3767,0,2.38,2.3796,2.3792,2.3789,2.3787,2.3782,2.3783,2.378,2.3781,2.3781,2.3775,2.3772,2.3767,2.3766,2.3765,2.3759,2.376,2.3761,2.3763,2.3758,2.3756,2.3755,2.3767,2.3767,2.3767,2.3767,0,0,2.3783,2.3784,2.3782,2.3782,2.378,2.3777,2.3773,2.377,2.3768,2.3766,2.3762,2.3756,2.3758,2.3756,2.3756,2.3753,2.3748,2.3755,2.3755,2.3754,2.3741,2.374,2.3739,2.3749,2.3748,2.3748,2.3742,0,2.3773,2.3766,2.3768,2.3761,2.3759,2.3762,2.3759,2.3758,2.3758,2.3755,2.3755,2.3751,2.3754,2.3752,2.375,2.3749,2.3745,2.375,2.3745,2.3745,2.3746,2.3738,2.3736,2.3731,2.3741,2.3741,2.3741,0,2.3759,2.3758,2.3751,2.3753,2.3751,2.3748,2.3747,2.3744,2.3744,2.3744,2.3743,2.3744,2.374,2.3744,2.3739,2.3742,2.374,2.374,2.374,2.3739,2.3742,2.3737,2.3728,2.3728,2.374,2.374,2.374,0,2.3748,2.3745,2.3741,2.3741,2.3742,2.374,2.374,2.374,2.3739,2.3737,2.3737,2.3735,2.3733,2.3732,2.3733,2.3735,2.3728,2.3731,2.3728,2.3728,2.3726,2.3726,2.3717,2.3725,2.3725,2.3725,2.3725,0,2.3736,2.3732,2.3737,2.3734,2.3731,2.3734,2.3729,2.373,2.373,2.3728,2.3731,2.3729,2.373,2.3728,2.3729,2.3726,2.3725,2.3725,2.3725,2.3725,2.3725,2.3723,2.3724,2.3725,2.3725,2.3725,2.3725,0,2.3723,2.3726,2.3722,2.3725,2.3725,2.3722,2.3724,2.3722,2.3724,2.3721,2.3721,2.3722,2.3721,2.3722,2.3719,2.372,2.3716,2.3717,2.3716,2.3717,2.3714,2.3714,2.3704,2.3703,2.3711,2.3711,2.3711,0,2.3715,2.3712,2.3715,2.3715,2.3715,2.3714,2.3714,2.3717,2.3716,2.3717,2.3715,2.3714,2.3713,2.371,2.3711,2.371,2.3711,2.3707,2.371,2.3711,2.3711,2.3711,2.3712,2.3706,2.3706,2.3706,2.3706,0,2.37,2.3703,2.3702,2.3703,2.3703,2.3704,2.3704,2.3704,2.3707,2.3707,2.3706,2.3705,2.3705,2.3704,2.3703,2.3703,2.3705,2.3705,2.3705,2.3704,2.3704,2.3705,2.3715,2.3705,2.3705,2.3705,2.3705,2.3705,2.369,2.3688,2.3691,2.3691,2.3692,2.3694,2.3693,2.3695,2.3694,2.3695,2.3697,2.3696,2.3697,2.3697,2.3697,2.3697,2.3698,2.3697,2.3697,2.3696,2.3696,2.3705,2.3697,2.3697,2.3697,2.3697,2.3697,0,2.3676,2.3679,2.3679,2.3681,2.3681,2.3685,2.3687,2.3686,2.3686,2.3687,2.3688,2.3687,2.3687,2.3689,2.3689,2.3689,2.369,2.3688,2.3688,2.3689,2.3695,2.3695,2.3688,2.3688,2.3688,2.3688,2.3688,2.3688,2.3669,2.3667,2.367,2.367,2.3672,2.3672,2.3673,2.3674,2.3676,2.3676,2.3677,2.3678,2.3681,2.3681,2.3682,2.3682,2.3682,2.3681,2.3682,2.3687,2.3688,2.3689,2.369,2.3681,2.3681,2.3676,2.3676,2.3676]}]]